�������l�o���
Date,Time,MP-1(��Sv/h),MP-2(��Sv/h),MP-3(��Sv/h),MP-4(��Sv/h),MP-5(��Sv/h),MP-6(��Sv/h),MP-7(��Sv/h),MP-8(��Sv/h),����,����(m/s),���J
2017/11/03,00:00,0.905,1.443,0.908,1.708,1.160,0.498,0.906,0.844,�k,1.7,��
2017/11/03,00:10,0.904,1.442,0.907,1.706,1.162,0.499,0.907,0.843,�k�k��,2.3,��
2017/11/03,00:20,0.902,1.443,0.908,1.706,1.163,0.498,0.907,0.845,�k�k��,3.1,��
2017/11/03,00:30,0.904,1.445,0.908,1.707,1.160,0.498,0.906,0.843,�k��,4.2,��
2017/11/03,00:40,0.902,1.442,0.907,1.704,1.162,0.498,0.906,0.843,�k�k��,4.0,��
2017/11/03,00:50,0.903,1.442,0.907,1.710,1.166,0.499,0.907,0.842,�k�k��,3.9,��
2017/11/03,01:00,0.903,1.445,0.909,1.708,1.164,0.499,0.905,0.844,�k��,4.0,��
2017/11/03,01:10,0.904,1.442,0.906,1.707,1.162,0.499,0.907,0.844,�k�k��,4.3,��
2017/11/03,01:20,0.903,1.441,0.908,1.707,1.162,0.498,0.907,0.843,�k�k��,3.8,��
2017/11/03,01:30,0.902,1.442,0.909,1.708,1.164,0.498,0.906,0.845,�k�k��,4.1,��
2017/11/03,01:40,0.903,1.443,0.906,1.708,1.165,0.499,0.907,0.843,�k�k��,4.6,��
2017/11/03,01:50,0.906,1.443,0.910,1.707,1.162,0.498,0.906,0.843,�k�k��,5.1,��
2017/11/03,02:00,0.903,1.441,0.907,1.711,1.165,0.500,0.905,0.844,�k�k��,6.1,��
2017/11/03,02:10,0.903,1.441,0.908,1.707,1.165,0.501,0.906,0.843,�k�k��,6.8,��
2017/11/03,02:20,0.905,1.443,0.909,1.710,1.163,0.499,0.906,0.843,�k�k��,6.5,��
2017/11/03,02:30,0.905,1.441,0.907,1.709,1.163,0.497,0.908,0.844,�k�k��,6.7,��
2017/11/03,02:40,0.905,1.441,0.907,1.710,1.164,0.499,0.907,0.843,�k�k��,7.3,��
2017/11/03,02:50,0.904,1.443,0.906,1.708,1.164,0.498,0.906,0.845,�k�k��,6.8,��
2017/11/03,03:00,0.904,1.442,0.908,1.709,1.164,0.500,0.905,0.843,�k�k��,7.5,��
2017/11/03,03:10,0.903,1.443,0.908,1.709,1.164,0.500,0.908,0.844,�k�k��,8.0,��
2017/11/03,03:20,0.903,1.442,0.907,1.710,1.161,0.499,0.905,0.844,�k�k��,7.9,��
2017/11/03,03:30,0.904,1.445,0.908,1.708,1.165,0.500,0.907,0.844,�k�k��,7.1,��
2017/11/03,03:40,0.906,1.440,0.908,1.706,1.163,0.499,0.905,0.845,�k�k��,6.5,��
2017/11/03,03:50,0.903,1.443,0.907,1.709,1.164,0.499,0.906,0.845,�k�k��,6.4,��
2017/11/03,04:00,0.902,1.443,0.907,1.709,1.165,0.499,0.905,0.845,�k�k��,5.8,��
2017/11/03,04:10,0.905,1.442,0.907,1.710,1.163,0.500,0.905,0.845,�k�k��,6.3,��
2017/11/03,04:20,0.905,1.439,0.909,1.708,1.163,0.499,0.906,0.845,�k�k��,6.9,��
2017/11/03,04:30,0.902,1.443,0.907,1.708,1.165,0.500,0.906,0.845,�k�k��,6.1,��
2017/11/03,04:40,0.905,1.442,0.905,1.709,1.165,0.500,0.907,0.844,�k�k��,6.5,��
2017/11/03,04:50,0.904,1.443,0.909,1.711,1.166,0.500,0.905,0.846,�k�k��,7.3,��
2017/11/03,05:00,0.904,1.444,0.908,1.708,1.166,0.501,0.907,0.844,�k�k��,6.8,��
2017/11/03,05:10,0.901,1.442,0.908,1.711,1.165,0.500,0.908,0.844,�k�k��,7.7,��
2017/11/03,05:20,0.904,1.444,0.908,1.710,1.166,0.501,0.905,0.846,�k�k��,7.1,��
2017/11/03,05:30,0.907,1.446,0.909,1.711,1.165,0.499,0.905,0.846,�k�k��,6.9,��
2017/11/03,05:40,0.905,1.445,0.909,1.710,1.166,0.500,0.905,0.845,�k�k��,7.0,��
2017/11/03,05:50,0.904,1.443,0.907,1.707,1.165,0.501,0.905,0.846,�k�k��,7.1,��
2017/11/03,06:00,0.904,1.444,0.908,1.709,1.166,0.501,0.905,0.845,�k�k��,6.6,��
2017/11/03,06:10,0.904,1.442,0.909,1.710,1.167,0.501,0.906,0.845,�k�k��,6.3,��
2017/11/03,06:20,0.904,1.441,0.907,1.707,1.166,0.499,0.906,0.844,�k�k��,7.2,��
2017/11/03,06:30,0.906,1.443,0.911,1.707,1.166,0.501,0.907,0.845,�k�k��,6.4,��
2017/11/03,06:40,0.904,1.444,0.909,1.711,1.167,0.498,0.906,0.844,�k�k��,6.7,��
2017/11/03,06:50,0.904,1.445,0.907,1.712,1.166,0.500,0.906,0.843,�k�k��,6.8,��
2017/11/03,07:00,0.905,1.444,0.907,1.712,1.167,0.501,0.906,0.845,�k�k��,7.3,��
2017/11/03,07:10,0.905,1.443,0.908,1.710,1.167,0.498,0.906,0.846,�k�k��,7.6,��
2017/11/03,07:20,0.903,1.446,0.908,1.714,1.166,0.499,0.906,0.845,�k�k��,8.6,��
2017/11/03,07:30,0.906,1.445,0.908,1.709,1.166,0.501,0.906,0.844,�k�k��,8.0,��
2017/11/03,07:40,0.903,1.443,0.907,1.710,1.164,0.502,0.906,0.846,�k�k��,8.7,��
2017/11/03,07:50,0.903,1.444,0.909,1.711,1.166,0.499,0.906,0.846,�k�k��,8.2,��
2017/11/03,08:00,0.906,1.444,0.909,1.712,1.166,0.500,0.908,0.845,�k�k��,7.9,��
2017/11/03,08:10,0.906,1.443,0.910,1.714,1.167,0.499,0.906,0.845,�k�k��,8.5,��
2017/11/03,08:20,0.907,1.445,0.909,1.712,1.168,0.501,0.908,0.844,�k�k��,6.6,��
2017/11/03,08:30,0.905,1.445,0.910,1.716,1.167,0.498,0.906,0.847,�k�k��,7.0,��
2017/11/03,08:40,0.906,1.445,0.909,1.709,1.168,0.500,0.906,0.845,�k�k��,6.1,��
2017/11/03,08:50,0.909,1.447,0.908,1.712,1.167,0.500,0.906,0.846,�k�k��,6.1,��
2017/11/03,09:00,0.907,1.443,0.908,1.711,1.171,0.499,0.909,0.848,�k�k��,6.6,��
2017/11/03,09:10,0.907,1.443,0.910,1.713,1.170,0.501,0.906,0.846,�k�k��,5.3,��
2017/11/03,09:20,0.907,1.442,0.908,1.710,1.170,0.502,0.908,0.847,�k�k��,5.4,��
2017/11/03,09:30,0.908,1.440,0.912,1.715,1.167,0.499,0.908,0.847,�k�k��,5.2,��
2017/11/03,09:40,0.906,1.442,0.911,1.713,1.167,0.500,0.906,0.846,�k,3.6,��
2017/11/03,09:50,0.903,1.442,0.910,1.711,1.168,0.500,0.908,0.845,�k,4.8,��
2017/11/03,10:00,0.906,1.440,0.910,1.712,1.167,0.499,0.908,0.847,�k,5.4,��
2017/11/03,10:10,0.907,1.439,0.910,1.715,1.166,0.499,0.907,0.847,�k,5.1,��
2017/11/03,10:20,0.907,1.439,0.912,1.713,1.167,0.497,0.906,0.847,�k,5.0,��
2017/11/03,10:30,0.906,1.445,0.910,1.714,1.168,0.498,0.906,0.844,�k�k��,7.0,��
2017/11/03,10:40,0.905,1.444,0.911,1.712,1.169,0.499,0.905,0.844,�k�k��,6.6,��
2017/11/03,10:50,0.906,1.440,0.908,1.714,1.167,0.497,0.908,0.844,�k�k��,6.6,��
2017/11/03,11:00,0.907,1.443,0.908,1.712,1.169,0.498,0.908,0.845,�k�k��,6.0,��
2017/11/03,11:10,0.906,1.444,0.907,1.715,1.168,0.498,0.909,0.847,�k�k��,5.1,��
2017/11/03,11:20,0.907,1.444,0.908,1.714,1.167,0.498,0.907,0.847,�k�k��,4.7,��
2017/11/03,11:30,0.907,1.447,0.909,1.714,1.169,0.498,0.909,0.848,�k�k��,5.8,��
2017/11/03,11:40,0.905,1.442,0.909,1.710,1.168,0.499,0.909,0.846,�k�k��,6.5,��
2017/11/03,11:50,0.907,1.446,0.908,1.716,1.168,0.499,0.907,0.846,�k�k��,6.6,��
2017/11/03,12:00,0.908,1.445,0.910,1.714,1.171,0.500,0.907,0.846,�k�k��,6.1,��
2017/11/03,12:10,0.906,1.448,0.913,1.717,1.171,0.499,0.909,0.845,�k�k��,6.5,��
2017/11/03,12:20,0.908,1.449,0.909,1.712,1.172,0.501,0.908,0.843,�k�k��,5.7,��
2017/11/03,12:30,0.908,1.447,0.910,1.713,1.172,0.500,0.906,0.843,�k�k��,5.8,��
2017/11/03,12:40,0.909,1.449,0.910,1.715,1.170,0.500,0.907,0.844,�k�k��,6.3,��
2017/11/03,12:50,0.906,1.447,0.908,1.716,1.172,0.500,0.905,0.845,�k�k��,6.1,��
2017/11/03,13:00,0.909,1.450,0.910,1.714,1.172,0.500,0.907,0.845,�k�k��,5.4,��
2017/11/03,13:10,0.908,1.446,0.909,1.713,1.173,0.501,0.906,0.846,�k�k��,5.4,��
2017/11/03,13:20,0.907,1.445,0.911,1.716,1.172,0.498,0.908,0.842,�k�k��,5.3,��
2017/11/03,13:30,0.908,1.446,0.908,1.714,1.173,0.500,0.907,0.843,�k�k��,5.5,��
2017/11/03,13:40,0.909,1.445,0.911,1.716,1.172,0.499,0.908,0.844,�k�k��,4.9,��
2017/11/03,13:50,0.908,1.448,0.911,1.716,1.175,0.499,0.907,0.844,�k�k��,4.9,��
2017/11/03,14:00,0.908,1.444,0.913,1.717,1.171,0.497,0.908,0.844,�k,4.6,��
2017/11/03,14:10,0.909,1.449,0.912,1.714,1.172,0.499,0.908,0.843,�k,5.1,��
2017/11/03,14:20,0.908,1.449,0.909,1.717,1.173,0.500,0.908,0.844,�k,4.5,��
2017/11/03,14:30,0.909,1.447,0.911,1.717,1.173,0.499,0.909,0.843,�k,5.0,��
2017/11/03,14:40,0.908,1.450,0.911,1.716,1.172,0.498,0.910,0.846,�k,4.4,��
2017/11/03,14:50,0.907,1.447,0.911,1.717,1.172,0.499,0.911,0.843,�k,4.9,��
2017/11/03,15:00,0.908,1.450,0.910,1.714,1.173,0.500,0.911,0.844,�k,4.7,��
2017/11/03,15:10,0.908,1.448,0.912,1.712,1.169,0.498,0.911,0.844,�k,4.2,��
2017/11/03,15:20,0.910,1.448,0.909,1.712,1.176,0.498,0.910,0.845,�k,4.2,��
2017/11/03,15:30,0.907,1.450,0.910,1.714,1.175,0.500,0.911,0.843,�k�k��,3.6,��
2017/11/03,15:40,0.906,1.451,0.911,1.718,1.171,0.500,0.909,0.846,�k�k��,3.6,��
2017/11/03,15:50,0.908,1.449,0.908,1.717,1.173,0.500,0.912,0.847,�k�k��,3.4,��
2017/11/03,16:00,0.907,1.452,0.910,1.714,1.172,0.502,0.911,0.846,�k�k��,2.8,��
2017/11/03,16:10,0.909,1.450,0.912,1.715,1.173,0.502,0.909,0.847,�k,3.4,��
2017/11/03,16:20,0.908,1.451,0.911,1.715,1.172,0.501,0.910,0.847,�k,3.4,��
2017/11/03,16:30,0.906,1.451,0.908,1.716,1.172,0.502,0.910,0.848,�k,2.6,��
2017/11/03,16:40,0.908,1.451,0.909,1.715,1.173,0.500,0.908,0.846,�k�k��,3.4,��
2017/11/03,16:50,0.908,1.449,0.912,1.714,1.172,0.502,0.910,0.846,�k,3.8,��
2017/11/03,17:00,0.909,1.453,0.912,1.714,1.176,0.501,0.910,0.847,�k,3.1,��
2017/11/03,17:10,0.910,1.453,0.912,1.714,1.176,0.500,0.911,0.846,�k,2.8,��
2017/11/03,17:20,0.909,1.452,0.912,1.713,1.175,0.501,0.910,0.846,�k,2.3,��
2017/11/03,17:30,0.911,1.451,0.912,1.715,1.174,0.500,0.911,0.845,�k�k��,2.0,��
2017/11/03,17:40,0.910,1.452,0.911,1.715,1.175,0.501,0.910,0.846,�k�k��,0.6,��
2017/11/03,17:50,0.910,1.451,0.911,1.714,1.176,0.500,0.909,0.845,-,CALM,��
2017/11/03,18:00,0.913,1.450,0.911,1.713,1.174,0.502,0.909,0.846,��쓌,0.8,��
2017/11/03,18:10,0.910,1.452,0.912,1.713,1.174,0.501,0.907,0.847,�쐼,0.9,��
2017/11/03,18:20,0.909,1.451,0.912,1.713,1.173,0.500,0.909,0.846,��,1.9,��
2017/11/03,18:30,0.909,1.451,0.910,1.714,1.172,0.500,0.909,0.847,���쐼,1.7,��
2017/11/03,18:40,0.911,1.450,0.911,1.714,1.174,0.500,0.908,0.846,���쐼,0.9,��
2017/11/03,18:50,0.909,1.450,0.912,1.713,1.173,0.501,0.908,0.846,���쐼,1.2,��
2017/11/03,19:00,0.909,1.449,0.911,1.712,1.175,0.500,0.910,0.846,��,0.9,��
2017/11/03,19:10,0.910,1.451,0.912,1.711,1.174,0.502,0.909,0.845,�쐼,1.4,��
2017/11/03,19:20,0.910,1.452,0.911,1.714,1.175,0.500,0.909,0.844,���쐼,1.7,��
2017/11/03,19:30,0.908,1.450,0.911,1.714,1.174,0.499,0.909,0.847,���쐼,1.7,��
2017/11/03,19:40,0.911,1.450,0.912,1.713,1.174,0.501,0.909,0.846,��,1.4,��
2017/11/03,19:50,0.912,1.450,0.910,1.714,1.175,0.499,0.909,0.845,���k��,0.8,��
2017/11/03,20:00,0.909,1.448,0.913,1.712,1.172,0.500,0.910,0.844,���k��,0.9,��
2017/11/03,20:10,0.908,1.451,0.911,1.712,1.174,0.500,0.908,0.844,��,0.8,��
2017/11/03,20:20,0.910,1.448,0.909,1.712,1.174,0.501,0.910,0.846,��,1.5,��
2017/11/03,20:30,0.909,1.449,0.911,1.713,1.176,0.500,0.908,0.846,��,1.7,��
2017/11/03,20:40,0.908,1.449,0.911,1.711,1.172,0.499,0.908,0.845,��,0.9,��
2017/11/03,20:50,0.909,1.451,0.911,1.713,1.174,0.502,0.909,0.845,�쐼,0.9,��
2017/11/03,21:00,0.909,1.450,0.909,1.711,1.173,0.502,0.908,0.847,�쐼,1.1,��
2017/11/03,21:10,0.909,1.451,0.911,1.711,1.173,0.500,0.910,0.846,��쐼,1.7,��
2017/11/03,21:20,0.907,1.452,0.910,1.710,1.174,0.500,0.909,0.845,�쐼,2.9,��
2017/11/03,21:30,0.911,1.450,0.913,1.714,1.171,0.501,0.909,0.846,�쐼,3.0,��
2017/11/03,21:40,0.909,1.450,0.912,1.713,1.174,0.500,0.910,0.846,��쐼,2.6,��
2017/11/03,21:50,0.909,1.450,0.911,1.713,1.174,0.501,0.909,0.845,��쐼,3.3,��
2017/11/03,22:00,0.909,1.450,0.912,1.713,1.175,0.499,0.911,0.845,��쐼,3.1,��
2017/11/03,22:10,0.910,1.451,0.911,1.714,1.174,0.501,0.909,0.844,��쐼,3.6,��
2017/11/03,22:20,0.911,1.448,0.912,1.713,1.175,0.500,0.909,0.847,��쐼,3.8,��
2017/11/03,22:30,0.909,1.451,0.912,1.712,1.172,0.502,0.911,0.847,��쐼,3.7,��
2017/11/03,22:40,0.909,1.447,0.912,1.714,1.172,0.501,0.908,0.845,�쐼,4.2,��
2017/11/03,22:50,0.910,1.450,0.911,1.714,1.175,0.500,0.909,0.846,�쐼,3.9,��
2017/11/03,23:00,0.909,1.449,0.911,1.713,1.176,0.501,0.909,0.847,�쐼,2.8,��
2017/11/03,23:10,0.909,1.449,0.911,1.713,1.177,0.503,0.908,0.846,���쐼,4.4,��
2017/11/03,23:20,0.910,1.449,0.913,1.714,1.175,0.500,0.910,0.846,��,4.9,��
2017/11/03,23:30,0.911,1.451,0.912,1.715,1.172,0.500,0.910,0.845,���쐼,3.8,��
2017/11/03,23:40,0.911,1.448,0.910,1.710,1.172,0.502,0.910,0.847,��,1.4,��
2017/11/03,23:50,0.910,1.451,0.913,1.712,1.176,0.501,0.912,0.845,��,1.5,��
